Reggiomediterranea

Scheda squadra Reggiomediterranea, campionato di Eccellenza Girone A Calabria. Notizie in tempo reale, calendario risultati e classifiche.

Reggiomed – Morrone 2-1(DTS), reggini alla fase nazionale

La Reggiomediterranea di mister Misiti, batte la Morrone ai supplementari e conquista la qualificazione alle fasi nazionali dei playoff di Eccellenza. Partita combattuta e ricca di emozioni quella a cui si è assistito questo...

Reggiomed, vincere per continuare a sognare

Mancano poche ore alla finalissima dei playoff di Eccellenza, che vedrà protagonista Reggiomediterranea e Morrone. Due formazioni che con merito hanno raggiunto questo traguardo straordinario, avendo disputato una stagione da veri protagonisti. Reggiomediterranea e Morrone,...

Reggiomed, tutti uniti per qualcosa di grande

In casa Reggiomediterranea è tutto pronto per questi play off, che vedranno domani gli amaranto protagonisti nella sfida casalinga contro il Città di Acri. Gli amaranto dopo aver chiuso la stagione regolare al secondo...

Reggiomed – Morrone 1-1, amaranto chiudono al secondo posto

Termina con una rete per parte la sfida tra Reggiomediterranea e Morrone, che chiude la stagione regolare del campionato di Eccellenza. Gli amaranto si piazzano in seconda posizione, assicurandosi una corsia preferenziale per i...

Reggiomed, chiudere al meglio prima dei playoff

Nell'ultima giornata del campionato di Eccellenza calabrese, la Reggiomediterranea saluta la stagione davanti al proprio pubblico, ospitando la Morrone. Uno scontro diretto, utile per assicurarsi definitivamente il secondo posto. Gli amaranto di mister Misiti,...

Roccella – ReggioMed 0-5, tutto facile per i reggini

La Reggiomediterranea non delude le attese, andando ad infliggere un rotondo 0-5 a domicilio al fanalino di coda Roccella. I reggini hanno dominato la gara, chiudendo la prima frazione sullo 0-3, grazie alla doppietta di...

Reggiomed, a Roccella per il secondo posto

In questi ultimi 180 minuti del campionato di Eccellenza, la Reggiomediterranea è chiamata alla vittoria per chiudere il campionato al secondo posto. I ragazzi di mister Misiti, dopo due vittorie consecutive dovranno ripetersi in...

Reggiomed – Gallico Catona 2-1, il derby ai leoni amaranto

Il derby tutto reggino tra Reggiomediterranea e Gallico Catona, valevole per ventiseiesima giornata del campionato di Eccellenza, va agli amaranto che si impongono per 2-1 davanti al proprio pubblico. I ragazzi di mister Misiti fanno...

Reggiomed – Gallico Catona, accomunate dalla voglia di vincere

Con il campionato di Eccellenza a riposo per la sosta pasquale, spazio al match di recupero della ventiseiesima giornata tra Reggiomediterranea e Gallico Catona. Un derby tutto reggino, che mette in palio punti importanti...

Under 15, ReggioMed – Bocamelito 3-4: gli amaranto sfiorano l’impresa

Derby dalle mille emozioni quello disputato quest'oggi tra Reggiomediterranea e Bocamelito, con quest'ultimi che si sono imposti per 3 a 4. Una sconfitta per i ragazzi di mister Cacurri, maturata al termine di una partita...

Gallico Catona-Reggiomed, una gara di recupero che vale una stagione

Derby recupero nella “settimana di passione” per Reggiomed e Gallico Catona. Le due squadre non si possono accontentare, per loro play off e salvezza in palio. La “crudeltà”, mi si passi il termine, nel derby...

Gallico Catona, a Gioiosa la seconda sconfitta consecutiva

"Settimana di passione” per il Gallico Catona, che il 16 aprile giocherà la gara di recupero nel derby contro la Reggiomed. Entrambe le squadre vogliono vincere! Intanto si registra la seconda sconfitta consecutiva del Gallico...
DataCasaRisultatiTrasfertaOra
2022-05-01 14:30:0001/05/221 - 1 14:30:0014:30
2022-04-24 14:30:0024/04/220 - 5 14:30:0014:30
2022-04-10 14:30:0010/04/223 - 0 14:30:0014:30
2022-04-03 14:30:0003/04/223 - 1 14:30:0014:30
2022-03-27 14:30:0027/03/222 - 1 14:30:0014:30
2022-03-20 14:30:0020/03/223 - 1 14:30:0014:30
2022-03-13 14:30:0013/03/221 - 2 14:30:0014:30
2022-03-06 14:30:0006/03/223 - 2 14:30:0014:30
2022-03-02 14:30:0002/03/223 - 1 14:30:0014:30
2022-02-27 14:30:0027/02/220 - 2 14:30:0014:30
2022-02-20 14:30:0020/02/223 - 0 14:30:0014:30
2022-02-13 14:30:0013/02/223 - 2 14:30:0014:30
2022-02-06 14:30:0006/02/222 - 0 14:30:0014:30
2022-01-30 14:30:0030/01/220 - 0 14:30:0014:30
2022-01-23 14:30:0023/01/220 - 1 14:30:0014:30
2022-01-05 14:30:0005/01/222 - 4 14:30:0014:30
2021-12-19 14:30:0019/12/213 - 0 14:30:0014:30
2021-12-12 14:30:0012/12/214 - 1 14:30:0014:30
2021-12-05 14:30:0005/12/213 - 0 14:30:0014:30
2021-11-28 14:30:0028/11/211 - 0 14:30:0014:30
2021-11-21 14:30:0021/11/213 - 3 14:30:0014:30
2021-11-14 14:30:0014/11/210 - 5 14:30:0014:30
2021-11-07 14:30:0007/11/210 - 5 14:30:0014:30
2021-10-31 14:30:0031/10/211 - 0 14:30:0014:30
2021-10-24 14:30:0024/10/211 - 0 14:30:0014:30
2021-10-17 14:30:0017/10/210 - 0 14:30:0014:30
2021-10-10 14:30:0010/10/211 - 2 14:30:0014:30
2021-10-03 14:30:0003/10/214 - 2 14:30:0014:30
2021-09-26 15:30:0026/09/210 - 5 15:30:0015:30
2021-09-19 15:30:0019/09/213 - 1 15:30:0015:30
2021-05-23 15:30:0023/05/211 - 2 15:30:0015:30
2021-05-16 15:30:0016/05/210 - 0 15:30:0015:30
2021-05-09 15:30:0009/05/210 - 1 15:30:0015:30
2021-05-02 15:30:0002/05/211 - 0 15:30:0015:30
2021-04-25 15:30:0025/04/211 - 1 15:30:0015:30
2021-04-18 15:30:0018/04/211 - 0 15:30:0015:30
2021-04-11 15:30:0011/04/211 - 4 15:30:0015:30
2021-02-21 15:00:0021/02/21- 15:00:0015:00
2021-02-14 15:00:0014/02/21- 15:00:0015:00
2021-02-07 15:00:0007/02/21- 15:00:0015:00
2021-01-31 15:00:0031/01/21- 15:00:0015:00
2021-01-24 15:00:0024/01/21- 15:00:0015:00
2021-01-17 15:00:0017/01/21- 15:00:0015:00
2021-01-10 15:00:0010/01/21- 15:00:0015:00
2021-01-06 15:00:0006/01/21- 15:00:0015:00
2020-12-20 15:00:0020/12/20- 15:00:0015:00
2020-12-13 15:00:0013/12/20- 15:00:0015:00
2020-12-06 15:00:0006/12/20- 15:00:0015:00
2020-11-29 15:00:0029/11/20- 15:00:0015:00
2020-11-25 15:00:0025/11/20- 15:00:0015:00
2020-11-22 15:00:0022/11/20- 15:00:0015:00
2020-11-15 15:00:0015/11/20- 15:00:0015:00
2020-11-01 15:00:0001/11/20- 15:00:0015:00
2020-10-25 15:00:0025/10/205 - 1 15:00:0015:00
2020-10-21 15:00:0021/10/202 - 2 15:00:0015:00
2020-10-18 15:00:0018/10/20- 15:00:0015:00
2020-10-11 15:00:0011/10/201 - 1 15:00:0015:00
2020-10-04 15:00:0004/10/202 - 1 15:00:0015:00
2020-09-27 15:00:0027/09/200 - 1 15:00:0015:00
2020-04-19 15:30:0019/04/20- 15:30:0015:30
2020-04-05 15:30:0005/04/20- 15:30:0015:30
2020-03-29 15:30:0029/03/20- 15:30:0015:30
2020-03-22 14:30:0022/03/20- 14:30:0014:30
2020-03-15 14:30:0015/03/20- 14:30:0014:30
2020-03-08 14:30:0008/03/20- 14:30:0014:30
2020-03-01 14:30:0001/03/202 - 2 14:30:0014:30
2020-02-23 14:30:0023/02/201 - 0 14:30:0014:30
2020-02-16 14:30:0016/02/200 - 2 14:30:0014:30
2020-02-09 14:30:0009/02/204 - 1 14:30:0014:30
2020-02-02 14:30:0002/02/201 - 0 14:30:0014:30
2020-01-26 14:30:0026/01/200 - 0 14:30:0014:30
2020-01-19 14:30:0019/01/201 - 2 14:30:0014:30
2020-01-12 14:30:5712/01/203 - 0 14:30:5714:30
2020-01-05 14:30:0005/01/200 - 2 14:30:0014:30
2019-12-15 14:30:0015/12/190 - 3 14:30:0014:30
2019-12-08 14:30:0008/12/191 - 2 14:30:0014:30
2019-12-01 14:30:0001/12/192 - 2 14:30:0014:30
2019-11-24 14:30:0024/11/190 - 2 14:30:0014:30
2019-11-17 14:30:0017/11/192 - 1 14:30:0014:30
2019-11-10 14:30:0010/11/192 - 0 14:30:0014:30
2019-11-03 14:30:0003/11/193 - 0 14:30:0014:30
2019-10-27 14:30:0027/10/190 - 1 14:30:0014:30
2019-10-20 15:30:0020/10/191 - 1 15:30:0015:30
2019-10-13 15:30:0013/10/191 - 2 15:30:0015:30
2019-10-06 15:30:0006/10/191 - 0 15:30:0015:30
2019-09-28 15:30:0028/09/191 - 1 15:30:0015:30
2019-09-22 15:30:0022/09/190 - 0 15:30:0015:30
2019-09-15 15:30:0015/09/190 - 0 15:30:0015:30
2019-09-08 15:30:0008/09/193 - 1 15:30:0015:30
2019-04-28 16:00:0028/04/194 - 2 16:00:0016:00
2019-04-07 16:00:0007/04/194 - 2 16:00:0016:00
2019-03-31 15:00:0031/03/194 - 0 15:00:0015:00
2019-03-24 15:00:0024/03/191 - 3 15:00:0015:00
2019-03-17 15:00:0017/03/193 - 1 15:00:0015:00
2019-03-10 15:00:0010/03/191 - 1 15:00:0015:00
2019-03-03 15:00:0003/03/191 - 0 15:00:0015:00
2019-02-24 14:30:0024/02/192 - 1 14:30:0014:30
2019-02-17 14:30:0017/02/190 - 0 14:30:0014:30
2019-02-10 14:30:0010/02/192 - 3 14:30:0014:30
2019-02-03 14:30:0003/02/191 - 0 14:30:0014:30
2019-01-27 14:30:0027/01/190 - 2 14:30:0014:30
2019-01-20 14:30:0020/01/193 - 1 14:30:0014:30
2019-01-11 14:30:0011/01/190 - 1 14:30:0014:30
2019-01-06 14:30:0006/01/192 - 1 14:30:0014:30
2018-12-16 14:30:0016/12/183 - 1 14:30:0014:30
2018-12-09 14:30:0009/12/182 - 2 14:30:0014:30
2018-12-02 14:30:0002/12/181 - 2 14:30:0014:30
2018-11-25 14:30:0025/11/182 - 0 14:30:0014:30
2018-11-18 14:30:0018/11/180 - 1 14:30:0014:30
2018-11-11 14:30:0011/11/182 - 0 14:30:0014:30
2018-11-04 14:30:0004/11/180 - 0 14:30:0014:30
2018-10-28 14:30:0028/10/182 - 1 14:30:0014:30
2018-10-21 15:30:0021/10/181 - 0 15:30:0015:30
2018-10-14 15:30:0014/10/181 - 1 15:30:0015:30
2018-10-07 15:30:0007/10/181 - 2 15:30:0015:30
2018-09-30 15:30:0030/09/182 - 1 15:30:0015:30
2018-09-23 15:30:0023/09/181 - 2 15:30:0015:30
2018-09-16 15:30:0016/09/183 - 0 15:30:0015:30
2018-09-09 15:30:0009/09/180 - 4 15:30:0015:30
2018-04-29 16:00:0029/04/182 - 1 16:00:0016:00
2018-04-22 16:00:0022/04/180 - 1 16:00:0016:00
2018-04-22 16:00:0022/04/180 - 4 16:00:0016:00
2018-04-15 16:00:0015/04/181 - 0 16:00:0016:00
2018-04-08 16:00:0008/04/180 - 0 16:00:0016:00
2018-03-18 15:00:0018/03/185 - 0 15:00:0015:00
2018-03-11 15:00:0011/03/183 - 1 15:00:0015:00
2018-03-04 15:00:0004/03/182 - 2 15:00:0015:00
2018-02-25 14:30:0025/02/181 - 6 14:30:0014:30
2018-02-18 14:30:0018/02/183 - 0 14:30:0014:30
2018-02-11 14:30:0011/02/181 - 0 14:30:0014:30
2018-02-04 14:30:0004/02/181 - 4 14:30:0014:30
2018-01-28 14:30:0028/01/183 - 0 14:30:0014:30
2018-01-21 14:30:0021/01/182 - 1 14:30:0014:30
2018-01-14 14:30:0014/01/183 - 0 14:30:0014:30
2018-01-07 14:30:0007/01/180 - 0 14:30:0014:30
2017-12-17 14:30:0017/12/171 - 0 14:30:0014:30
2017-12-10 14:30:0010/12/172 - 2 14:30:0014:30
2017-12-03 14:30:0003/12/171 - 0 14:30:0014:30
2017-11-26 14:30:0026/11/171 - 0 14:30:0014:30
2017-11-19 14:30:0019/11/171 - 0 14:30:0014:30
2017-11-12 14:30:0012/11/171 - 0 14:30:0014:30
2017-11-05 14:30:0005/11/172 - 1 14:30:0014:30
2017-10-29 14:30:0029/10/170 - 0 14:30:0014:30
2017-10-22 15:30:0022/10/170 - 2 15:30:0015:30
2017-10-15 15:30:0015/10/171 - 1 15:30:0015:30
2017-10-08 15:30:0008/10/170 - 1 15:30:0015:30
2017-10-01 15:30:0001/10/170 - 1 15:30:0015:30
2017-09-24 15:30:0024/09/171 - 1 15:30:0015:30
2017-09-17 15:30:0017/09/170 - 1 15:30:0015:30
2017-09-10 15:30:0010/09/171 - 2 15:30:0015:30